RIEDLINGN Weather Reports


time (UTC)temp
C
wind
direction
speed
KPH
gust
KPH
rain 1hr
cm
rain 24hr
cm
rain mn
cm
humidity
%
barometer
mb
20260504060212 10 204 1.6 0.0 0.00 0.00 0.00 82 1019.7
20260504050210 8 204 1.6 0.0 0.00 0.00 0.00 89 1019.7
20260504043211 7 204 0.0 0.0 0.00 0.00 0.00 88 1019.8
20260504040211 8 204 0.0 0.0 0.00 0.00 0.00 86 1019.7
20260504033211 8 204 0.0 0.0 0.00 0.00 0.00 84 1019.9
20260504030212 9 204 0.0 0.0 0.00 0.00 0.00 82 1019.8
20260504023211 10 204 0.0 0.0 0.00 0.00 0.00 82 1020.0
20260504020212 10 204 0.0 0.0 0.00 0.00 0.00 82 1019.8
20260504013211 10 204 0.0 0.0 0.00 0.00 0.00 80 1019.8
20260504010211 10 204 0.0 0.0 0.00 0.00 0.00 78 1019.7
20260504003210 11 204 0.0 0.0 0.00 0.00 0.00 78 1019.9
20260504000208 11 204 1.6 0.0 0.00 0.00 0.00 75 1020.1
20260503233209 11 204 0.0 0.0 0.00 0.00 0.00 72 1020.2
20260503230209 12 204 0.0 0.0 0.00 0.00 0.00 68 1020.5
20260503223210 13 204 1.6 0.0 0.00 0.00 0.00 66 1020.5
20260503220212 13 204 0.0 0.0 0.00 0.00 0.00 64 1020.3
20260503213210 13 204 3.2 0.0 0.00 0.00 0.00 62 1020.1
20260503210211 14 204 1.6 0.0 0.00 0.00 0.00 59 1019.8
20260503203209 15 207 4.8 0.0 0.00 0.00 0.00 54 1019.5
20260503200211 16 261 4.8 0.0 0.00 0.00 0.00 51 1019.2
20260503193210 16 181 4.8 0.0 0.00 0.00 0.00 49 1018.9
20260503190210 17 331 11.3 0.0 0.00 0.00 0.00 44 1018.5
20260503183209 19 200 3.2 0.0 0.00 0.00 0.00 43 1017.9
20260503180210 20 55 6.4 0.0 0.00 0.00 0.00 47 1017.2
20260503173209 21 307 11.3 0.0 0.00 0.00 0.00 44 1017.3
20260503170211 21 355 14.5 0.0 0.00 0.00 0.00 42 1017.2
20260503160211 23 208 9.7 0.0 0.00 0.00 0.00 37 1016.7
20260503150209 25 169 19.3 0.0 0.00 0.00 0.00 25 1016.8
20260503140210 25 213 16.1 0.0 0.00 0.00 0.00 25 1017.2
20260503130210 24 179 11.3 0.0 0.00 0.00 0.00 36 1018.1
20260503120210 23 180 11.3 0.0 0.00 0.00 0.00 40 1018.6
20260503110210 23 161 16.1 0.0 0.00 0.00 0.00 36 1019.1
20260503100212 22 40 8.0 0.0 0.00 0.00 0.00 42 1019.6
20260503090210 19 288 6.4 0.0 0.00 0.00 0.00 54 1020.4
20260503080212 15 261 3.2 0.0 0.00 0.00 0.00 67 1020.7
20260503070211 11 232 6.4 0.0 0.00 0.00 0.00 81 1020.9